This is the latest recevied weather packets stored in our database for station/object W8RSN-13. If no packets are shown the sender has not sent any weather packets the latest 10 day(s).
| Time | Temp. | Humidity | Pressure | Rain* | Wind** | Luminosity | Snow |
|---|---|---|---|---|---|---|---|
| 1788268473 | 15.56° C | 75% | 1016.3 hPa | - | - | - | - |
| 1788268173 | 15.56° C | 74% | 1016.3 hPa | - | - | - | - |
| 1788267872 | 16.11° C | 72% | 1016.3 hPa | - | - | - | - |
| 1788267571 | 16.67° C | 70% | 1016.1 hPa | - | - | - | - |
| 1788267270 | 16.11° C | 69% | 1016.4 hPa | - | - | - | - |
| 1788266969 | 16.11° C | 70% | 1016.2 hPa | - | - | - | - |
| 1788266668 | 16.11° C | 71% | 1016.4 hPa | - | - | - | - |
| 1788266367 | 16.11° C | 74% | 1016.3 hPa | - | - | - | - |
| 1788266066 | 16.11° C | 74% | 1016.3 hPa | - | - | - | - |
| 1788265765 | 16.11° C | 73% | 1016.5 hPa | - | - | - | - |
| 1788265465 | 16.11° C | 73% | 1016.4 hPa | - | - | - | - |
| 1788265164 | 16.11° C | 75% | 1016.4 hPa | - | - | - | - |
| 1788264863 | 16.11° C | 76% | 1016.2 hPa | - | - | - | - |
| 1788264562 | 16.11° C | 75% | 1016.2 hPa | - | - | - | - |
| 1788264261 | 16.67° C | 75% | 1016.3 hPa | - | - | - | - |
| 1788263960 | 16.67° C | 76% | 1016.3 hPa | - | - | - | - |
| 1788263659 | 16.67° C | 75% | 1016.5 hPa | - | - | - | - |
| 1788263358 | 16.67° C | 74% | 1016.4 hPa | - | - | - | - |
| 1788262756 | 16.67° C | 74% | 1016.5 hPa | - | - | - | - |
| 1788262455 | 16.67° C | 74% | 1016.5 hPa | - | - | - | - |
| 1788262175 | 16.67° C | 72% | 1016.6 hPa | - | - | - | - |
| 1788261874 | 16.67° C | 73% | 1016.5 hPa | - | - | - | - |
| 1788261573 | 16.67° C | 72% | 1016.6 hPa | - | - | - | - |
| 1788261272 | 17.22° C | 71% | 1016.6 hPa | - | - | - | - |
| 1788260971 | 17.22° C | 71% | 1016.5 hPa | - | - | - | - |
* Rain since midnight (hover to see other rain measurements)
** Current wind speed in m/s (hover to see current wind gust speed)